TimeMST,TemperatureF,Dew PointF,Humidity,Sea Level PressureIn,VisibilityMPH,Wind Direction,Wind SpeedMPH,Gust SpeedMPH,PrecipitationIn,Events,Conditions,WindDirDegrees,DateUTC
12:53 AM,28.0,9.0,45,29.90,10.0,SW,21.9,-,N/A,,Clear,220,2013-12-13 07:53:00
1:53 AM,28.0,9.0,45,29.87,10.0,SW,24.2,-,N/A,,Clear,220,2013-12-13 08:53:00
2:53 AM,28.0,10.0,47,29.87,10.0,SW,23.0,-,N/A,,Clear,220,2013-12-13 09:53:00
3:53 AM,27.0,10.0,49,29.87,10.0,SW,24.2,-,N/A,,Clear,220,2013-12-13 10:53:00
4:53 AM,26.1,10.9,53,29.89,10.0,SSW,17.3,-,N/A,,Clear,210,2013-12-13 11:53:00
5:53 AM,24.1,10.9,57,29.91,10.0,West,12.7,21.9,N/A,,Clear,260,2013-12-13 12:53:00
6:53 AM,26.1,10.0,51,29.92,10.0,West,11.5,-,N/A,,Clear,270,2013-12-13 13:53:00
7:53 AM,26.1,10.9,53,29.91,10.0,SW,21.9,-,N/A,,Clear,220,2013-12-13 14:53:00
8:53 AM,24.1,12.0,60,29.96,10.0,NE,8.1,-,N/A,,Clear,50,2013-12-13 15:53:00
9:53 AM,24.1,12.9,62,29.98,10.0,NE,8.1,-,N/A,,Clear,40,2013-12-13 16:53:00
10:53 AM,24.1,12.9,62,29.96,10.0,NNE,8.1,-,N/A,,Clear,30,2013-12-13 17:53:00
11:53 AM,27.0,16.0,63,29.94,10.0,NNE,9.2,-,N/A,,Clear,20,2013-12-13 18:53:00
12:53 PM,28.0,16.0,61,29.94,10.0,North,8.1,-,N/A,,Clear,10,2013-12-13 19:53:00
1:53 PM,28.0,17.1,63,29.94,10.0,NNE,15.0,20.7,N/A,,Clear,20,2013-12-13 20:53:00
2:53 PM,27.0,16.0,63,29.96,10.0,North,18.4,23.0,N/A,,Clear,360,2013-12-13 21:53:00
3:53 PM,25.0,16.0,69,30.01,10.0,North,12.7,-,N/A,,Partly Cloudy,360,2013-12-13 22:53:00
4:53 PM,21.0,14.0,74,30.06,10.0,North,4.6,-,N/A,,Clear,360,2013-12-13 23:53:00
5:53 PM,21.9,12.9,68,30.09,10.0,NNW,8.1,-,N/A,,Mostly Cloudy,340,2013-12-14 00:53:00
6:53 PM,21.9,14.0,72,30.12,10.0,North,3.5,-,N/A,,Overcast,10,2013-12-14 01:53:00
7:53 PM,21.9,12.9,68,30.13,10.0,Calm,Calm,-,N/A,,Mostly Cloudy,0,2013-12-14 02:53:00
8:53 PM,21.0,15.1,78,30.17,10.0,Calm,Calm,-,N/A,,Overcast,0,2013-12-14 03:53:00
9:53 PM,21.0,15.1,78,30.19,10.0,Calm,Calm,-,N/A,,Overcast,0,2013-12-14 04:53:00
10:53 PM,19.0,15.1,85,30.22,10.0,WSW,4.6,-,N/A,,Overcast,240,2013-12-14 05:53:00
11:53 PM,19.9,15.1,81,30.21,10.0,WNW,12.7,-,N/A,,Overcast,290,2013-12-14 06:53:00